Regional Weather Roundup
Issued by NWS

Home | Current Version | Previous Version | Text Only | Print | Product List | Glossary Off
Versions: 1 2 3 4 5 6 7 8 9 10 11 12 13 14 15 16 17 18 19 20 21 22 23 24 25 26 27 28 29 30 31 32 33 34 35 36 37 38 39 40 41 42 43 44 45 46 47 48 49 50

252
ASUS44 KJAN 190110
RWRMS

MISSISSIPPI HOURLY WEATHER ROUNDUP
NATIONAL WEATHER SERVICE JACKSON MS
700 PM CST THU DEC 18 2014

NOTE: "FAIR: INDICATES FEW OR NO CLOUDS BELOW 12,000 FEET WITH NO
SIGNIFICANT WEATHER AND/OR OBSTRUCTIONS TO VISIBILITY.

MSZ001>002-007>008-010>013-018>021-025>028-034>036-190200-
NORTHWEST MISSISSIPPI

CITY           SKY/WX    TMP DP  RH WIND       PRES   REMARKS
CLARKSDALE     CLOUDY    45  41  87 N7        30.22R
CLEVELAND      CLOUDY    47  45  92 N6        30.19S
GREENWOOD      CLOUDY    50  43  77 NE6       30.19R
GREENVILLE     CLOUDY    50  44  80 NE7       30.18R
GRENADA        CLOUDY    45  41  87 CALM      30.20R
OLIVE BRANCH   CLOUDY    43  39  87 CALM      30.22R
OXFORD         CLOUDY    41  37  87 NE3       30.22R
TUNICA         CLOUDY    43  39  87 N5        30.22S
$$

MSZ003>006-009-014>017-022>024-029>033-037>039-190200-
NORTHEAST MISSISSIPPI

CITY           SKY/WX    TMP DP  RH WIND       PRES   REMARKS
COLUMBUS AFB   NOT AVBL
CORINTH        CLOUDY    45  37  76 NE3       30.20R
GOLDN TRIANGLE CLOUDY    46  36  66 CALM      30.18R
STARKVILLE     CLOUDY    46  37  71 CALM      30.20R
TUPELO         CLOUDY    46  36  68 NE3       30.21R
$$

MSZ040-058-190200-
CENTRAL MISSISSIPPI

CITY           SKY/WX    TMP DP  RH WIND       PRES   REMARKS
JACKSON INTL   CLOUDY    49  45  86 NE5       30.17R
JACKSON HAWKNS MOCLDY    49  44  83 NE3       30.17R
MERIDIAN KEY   MOCLDY    47  42  83 CALM      30.18R
MERIDIAN NAS   MOCLDY    44  38  79 CALM      30.19R
RAYMOND        FAIR      46  41  81 CALM      30.17S
VICKSBURG      CLOUDY    49  45  86 E3        30.17R
$$

MSZ059>079-190200-
SOUTH MISSISSIPPI

CITY           SKY/WX    TMP DP  RH WIND       PRES   REMARKS
HATTIESBURG    CLOUDY    51  49  92 CALM      30.17S
MCCOMB         CLOUDY    50  48  93 NE5       30.14R
NATCHEZ        CLOUDY    50  46  87 CALM      30.16R
PINE BELT      CLOUDY    48  45  87 NE5       30.17R
$$

MSZ080>082-190200-
COASTAL MISSISSIPPI

CITY           SKY/WX    TMP DP  RH WIND       PRES   REMARKS
BILOXI         CLOUDY    58  52  79 E3        30.13F
PASCAGOULA     CLOUDY    57  50  77 E3        30.15S
GULFPORT       CLOUDY    59  49  69 CALM      30.13S
$$



USA.gov is the U.S. government's official web portal to all federal, state and local government web resources and services.